Weather History for Howell, MI

Change the Weather History Date:

Monday, June 17, 2013

  Actual Average Record
Temperature  
Mean Temperature 72 °F -  
Max Temperature 85 °F 78 °F 89 °F (2006)
Min Temperature 59 °F 56 °F 46 °F (2008)
Cooling Degree Days 7    
Growing Degree Days 22 (Base 50)    
Moisture  
Dew Point 57 °F    
Average Humidity 61    
Maximum Humidity 88    
Minimum Humidity 34    
Precipitation  
Precipitation 0.00 in - - ()
Sea Level Pressure  
Sea Level Pressure 29.91 in    
Wind  
Wind Speed 5 mph (West)    
Max Wind Speed 15 mph    
Max Gust Speed 22 mph    
Visibility 10 miles    
Events      
Averages and records for this station are not official NWS values.
T = Trace of Precipitation, MM = Missing Value Source: NWS Daily Summary

Daily Weather History Graph

Daily Weather History Graph

Search for Another Location

Airport:

Trip Planner

Search our weather history database for the weather conditions in past years. The results will help you decide how hot, cold, wet, or windy it might be!

Date:

Astronomy

Jun. 17, 2013 Rise Set
Actual Time 5:57 AM EDT 9:16 PM EDT
Civil Twilight 5:22 AM EDT 9:51 PM EDT
Nautical Twilight 4:37 AM EDT 10:36 PM EDT
Astronomical Twilight 3:41 AM EDT 11:32 PM EDT
Moon 2:47 PM EDT (6/17) 1:40 AM EDT (6/17)
Length of Visible Light 16h 28m
Length of Day
15h 18m
First Quarter, 60% of the Moon is Illuminated
Jun 17
First Quarter
Jun 23
Full
Jun 30
Last Quarter
Jul 8
New
Jul 15
First Quarter

Hourly Weather History & Observations

Time (EDT) Temp. Heat Index Dew Point Humidity Pressure Visibility Wind Dir Wind Speed Gust Speed Precip Events Conditions
12:15 AM 64.9 °F - 54.9 °F 70% 29.91 in 10.0 mi SW 3.5 mph - N/A   Clear
12:35 AM 64.6 °F - 54.9 °F 71% 29.91 in 10.0 mi WSW 3.5 mph - N/A   Clear
12:55 AM 64.6 °F - 54.7 °F 70% 29.91 in 10.0 mi WSW 4.6 mph - N/A   Clear
1:15 AM 64.4 °F - 54.5 °F 70% 29.92 in 10.0 mi WSW 4.6 mph - N/A   Clear
1:35 AM 63.5 °F - 54.5 °F 72% 29.92 in 10.0 mi WSW 3.5 mph - N/A   Clear
1:55 AM 63.5 °F - 54.3 °F 72% 29.92 in 10.0 mi WSW 3.5 mph - N/A   Clear
2:14 AM 62.6 °F - 53.8 °F 73% 29.91 in 10.0 mi SW 4.6 mph - N/A   Clear
2:35 AM 62.2 °F - 53.8 °F 74% 29.90 in 10.0 mi SW 4.6 mph - N/A   Clear
2:55 AM 62.4 °F - 53.6 °F 73% 29.90 in 10.0 mi Calm Calm - N/A   Clear
3:14 AM 62.2 °F - 53.2 °F 72% 29.90 in 10.0 mi WSW 4.6 mph - N/A   Clear
3:35 AM 62.6 °F - 53.1 °F 71% 29.89 in 10.0 mi SW 4.6 mph - N/A   Clear
3:54 AM 62.4 °F - 53.1 °F 71% 29.90 in 10.0 mi WSW 3.5 mph - N/A   Clear
4:15 AM 61.7 °F - 53.1 °F 73% 29.90 in 10.0 mi SW 3.5 mph - N/A   Clear
4:35 AM 60.8 °F - 54.1 °F 79% 29.89 in 10.0 mi Calm Calm - N/A   Clear
4:54 AM 60.6 °F - 54.1 °F 79% 29.92 in 10.0 mi NNW 11.5 mph 18.4 mph N/A   Clear
5:15 AM 61.9 °F - 55.9 °F 81% 29.92 in 10.0 mi WNW 4.6 mph - N/A   Clear
5:35 AM 60.3 °F - 55.2 °F 83% 29.92 in 10.0 mi WSW 3.5 mph - N/A   Clear
5:54 AM 59.7 °F - 55.4 °F 86% 29.93 in 10.0 mi Calm Calm - N/A   Clear
6:15 AM 59.4 °F - 55.4 °F 87% 29.93 in 10.0 mi Calm Calm - N/A   Clear
6:34 AM 59.9 °F - 56.3 °F 88% 29.93 in 10.0 mi Calm Calm - N/A   Clear
6:55 AM 61.3 °F - 57.6 °F 87% 29.92 in 10.0 mi SSW 3.5 mph - N/A   Clear
7:15 AM 63.5 °F - 58.1 °F 83% 29.92 in 10.0 mi SSW 4.6 mph - N/A   Clear
7:34 AM 64.6 °F - 59.0 °F 82% 29.92 in 10.0 mi SW 3.5 mph - N/A   Clear
7:55 AM 65.8 °F - 59.0 °F 79% 29.92 in 10.0 mi SW 3.5 mph - N/A   Clear
8:15 AM 67.5 °F - 59.4 °F 75% 29.93 in 10.0 mi SSW 3.5 mph - N/A   Clear
8:34 AM 69.6 °F - 59.9 °F 71% 29.92 in 10.0 mi Calm Calm - N/A   Clear
8:55 AM 71.6 °F - 60.1 °F 67% 29.93 in 10.0 mi WSW 3.5 mph - N/A   Clear
9:14 AM 73.0 °F - 59.5 °F 62% 29.94 in 10.0 mi SW 4.6 mph - N/A   Clear
9:35 AM 74.3 °F - 60.1 °F 61% 29.95 in 10.0 mi West 5.8 mph - N/A   Clear
9:55 AM 75.2 °F - 59.9 °F 59% 29.95 in 10.0 mi WNW 3.5 mph - N/A   Clear
10:15 AM 75.9 °F - 59.9 °F 57% 29.95 in 7.0 mi NW 4.6 mph - N/A   Clear
10:35 AM 76.1 °F - 58.8 °F 55% 29.94 in 10.0 mi NW 3.5 mph - N/A   Clear
10:55 AM 76.1 °F - 58.8 °F 55% 29.94 in 10.0 mi Calm Calm - N/A   Clear
11:15 AM 76.8 °F - 58.6 °F 53% 29.94 in 10.0 mi NW 4.6 mph - N/A   Clear
11:35 AM 77.7 °F - 59.0 °F 52% 29.94 in 10.0 mi West 5.8 mph - N/A   Clear
11:54 AM 79.2 °F - 58.3 °F 49% 29.94 in 10.0 mi West 6.9 mph - N/A   Clear
12:15 PM 79.7 °F - 57.7 °F 47% 29.94 in 10.0 mi West 8.1 mph - N/A   Clear
12:35 PM 80.1 °F 80.7 °F 58.5 °F 48% 29.93 in 10.0 mi WNW 6.9 mph - N/A   Clear
12:55 PM 80.6 °F 80.8 °F 57.2 °F 45% 29.93 in 10.0 mi WSW 6.9 mph - N/A   Clear
1:15 PM 81.3 °F 81.3 °F 57.6 °F 44% 29.92 in 10.0 mi West 6.9 mph - N/A   Clear
1:34 PM 81.9 °F 81.8 °F 57.9 °F 44% 29.92 in 10.0 mi WNW 5.8 mph - N/A   Clear
1:55 PM 82.8 °F 82.4 °F 57.2 °F 42% 29.92 in 10.0 mi WSW 8.1 mph - N/A   Clear
2:15 PM 83.3 °F 82.6 °F 56.5 °F 40% 29.91 in 10.0 mi WSW 8.1 mph - N/A   Clear
2:35 PM 83.3 °F 82.6 °F 56.5 °F 40% 29.91 in 10.0 mi West 11.5 mph 17.3 mph N/A   Scattered Clouds
2:55 PM 84.0 °F 83.0 °F 55.6 °F 38% 29.90 in 10.0 mi West 10.4 mph - N/A   Scattered Clouds
3:14 PM 84.2 °F 83.0 °F 55.2 °F 37% 29.89 in 10.0 mi West 10.4 mph 17.3 mph N/A   Clear
3:35 PM 85.1 °F 83.8 °F 55.0 °F 36% 29.89 in 10.0 mi WSW 10.4 mph 16.1 mph N/A   Clear
3:55 PM 84.9 °F 83.4 °F 54.5 °F 35% 29.89 in 10.0 mi WSW 15.0 mph 21.9 mph N/A   Clear
4:14 PM 84.9 °F 83.3 °F 53.4 °F 34% 29.88 in 10.0 mi West 9.2 mph 19.6 mph N/A   Clear
4:35 PM 85.1 °F 83.6 °F 54.7 °F 35% 29.88 in 10.0 mi West 9.2 mph - N/A   Clear
4:54 PM 85.8 °F 84.3 °F 55.0 °F 35% 29.87 in 10.0 mi West 9.2 mph - N/A   Clear
5:15 PM 85.1 °F 83.8 °F 55.6 °F 36% 29.87 in 10.0 mi WSW 10.4 mph 19.6 mph N/A   Clear
5:35 PM 84.2 °F 82.9 °F 54.7 °F 36% 29.86 in 10.0 mi West 12.7 mph 17.3 mph N/A   Clear
5:54 PM 84.4 °F 83.1 °F 54.5 °F 36% 29.85 in 10.0 mi West 11.5 mph - N/A   Clear
6:15 PM 84.0 °F 82.9 °F 55.0 °F 37% 29.85 in 10.0 mi West 9.2 mph - N/A   Clear
6:35 PM 83.7 °F 83.0 °F 56.7 °F 40% 29.85 in 10.0 mi West 10.4 mph - N/A   Scattered Clouds
6:54 PM 83.7 °F 82.5 °F 54.7 °F 37% 29.85 in 10.0 mi West 10.4 mph - N/A   Scattered Clouds
7:15 PM 83.5 °F 82.1 °F 53.2 °F 35% 29.85 in 10.0 mi West 12.7 mph 18.4 mph N/A   Scattered Clouds
7:34 PM 82.4 °F 81.4 °F 53.6 °F 37% 29.86 in 7.0 mi West 9.2 mph - N/A   Clear
7:55 PM 81.1 °F - 52.9 °F 37% 29.86 in 10.0 mi West 8.1 mph - N/A   Clear
8:15 PM 79.2 °F - 55.0 °F 43% 29.88 in 10.0 mi North 10.4 mph - N/A   Scattered Clouds
8:34 PM 73.8 °F - 60.8 °F 64% 29.89 in 10.0 mi NNE 9.2 mph 16.1 mph N/A   Scattered Clouds
8:55 PM 70.9 °F - 59.9 °F 68% 29.91 in 10.0 mi NE 11.5 mph 16.1 mph N/A   Clear
9:14 PM 69.3 °F - 59.4 °F 71% 29.90 in 10.0 mi NE 4.6 mph - N/A   Clear
9:35 PM 68.2 °F - 59.5 °F 74% 29.91 in 10.0 mi NE 6.9 mph - N/A   Clear
9:55 PM 68.0 °F - 59.5 °F 74% 29.92 in 10.0 mi NE 3.5 mph - N/A   Scattered Clouds
10:14 PM 67.3 °F - 59.7 °F 77% 29.92 in 10.0 mi NE 4.6 mph - N/A   Scattered Clouds
10:35 PM 66.6 °F - 60.3 °F 80% 29.93 in 10.0 mi North 3.5 mph - N/A   Scattered Clouds
10:55 PM 66.2 °F - 60.3 °F 81% 29.92 in 10.0 mi East 3.5 mph - N/A   Scattered Clouds
11:14 PM 65.5 °F - 60.4 °F 84% 29.93 in 10.0 mi NE 4.6 mph - N/A   Scattered Clouds
11:35 PM 65.1 °F - 60.1 °F 84% 29.93 in 10.0 mi NE 4.6 mph - N/A   Clear
11:55 PM 64.8 °F - 59.9 °F 84% 29.94 in 10.0 mi North 6.9 mph - N/A   Scattered Clouds